• In Hungary
  • List of Countries
  • For 7 days
  • Water Temperature
  • Satellite Maps
  • Weather Map
  • News
  • Weather Widgets
  • user-avatar
    Login

    Hourly Weather Kozlovka

    Today, 22 July, Sunday

    Time Temperature Precipitation Wind Pressure Humidity
    00:00 +21°C° 0 mm 1 mps 737 mmHg 83%
    01:00 +20°C° 0 mm 1 mps 737 mmHg 85%
    02:00 +20°C° 0 mm 1 mps 737 mmHg 87%
    03:00 +20°C° 0 mm 1 mps 737 mmHg 88%
    04:00 +20°C° 0 mm 1 mps 737 mmHg 87%
    05:00 +21°C° 0 mm 1 mps 737 mmHg 86%
    06:00 +21°C° 0 mm 1 mps 738 mmHg 85%
    07:00 +23°C° 0 mm 1 mps 738 mmHg 81%
    08:00 +24°C° 0 mm 1 mps 738 mmHg 76%
    09:00 +25°C° 0 mm 1 mps 738 mmHg 71%
    10:00 +26°C° 0.4 mm 1 mps 738 mmHg 67%
    11:00 +27°C° 0.4 mm 2 mps 738 mmHg 64%
    12:00 +28°C° 0.4 mm 2 mps 738 mmHg 61%
    13:00 +28°C° 1 mm 2 mps 738 mmHg 61%
    14:00 +28°C° 1 mm 3 mps 738 mmHg 61%
    15:00 +28°C° 1 mm 3 mps 738 mmHg 62%
    16:00 +27°C° 1.3 mm 3 mps 738 mmHg 66%
    17:00 +27°C° 1.3 mm 4 mps 738 mmHg 71%
    18:00 +26°C° 1.3 mm 4 mps 738 mmHg 75%
    19:00 +25°C° 1 mm 4 mps 738 mmHg 79%
    20:00 +23°C° 1 mm 4 mps 738 mmHg 83%
    21:00 +21°C° 1 mm 5 mps 738 mmHg 86%
    22:00 +21°C° 0.3 mm 5 mps 738 mmHg 87%
    23:00 +21°C° 0.3 mm 5 mps 738 mmHg 87%

    Tomorrow, 23 July, Monday

    Time Temperature Precipitation Wind Pressure Humidity
    00:00 +20°C° 0.3 mm 5 mps 738 mmHg 88%
    01:00 +20°C° 0.1 mm 5 mps 738 mmHg 88%
    02:00 +19°C° 0.1 mm 5 mps 738 mmHg 89%
    03:00 +19°C° 0.1 mm 4 mps 739 mmHg 89%
    04:00 +19°C° 0.2 mm 4 mps 739 mmHg 89%
    05:00 +19°C° 0.2 mm 4 mps 739 mmHg 88%
    06:00 +20°C° 0.2 mm 4 mps 739 mmHg 88%
    07:00 +21°C° 0.6 mm 5 mps 739 mmHg 83%
    08:00 +23°C° 0.6 mm 5 mps 739 mmHg 78%
    09:00 +26°C° 0.6 mm 5 mps 739 mmHg 72%
    10:00 +26°C° 1 mm 5 mps 739 mmHg 69%
    11:00 +27°C° 1 mm 5 mps 739 mmHg 66%
    12:00 +28°C° 1 mm 5 mps 739 mmHg 63%
    13:00 +28°C° 1.3 mm 5 mps 739 mmHg 63%
    14:00 +28°C° 1.3 mm 5 mps 739 mmHg 64%
    15:00 +28°C° 1.3 mm 5 mps 739 mmHg 64%
    16:00 +27°C° 1.4 mm 4 mps 739 mmHg 69%
    17:00 +26°C° 1.4 mm 4 mps 740 mmHg 73%
    18:00 +26°C° 1.4 mm 4 mps 740 mmHg 77%
    19:00 +23°C° 0.8 mm 4 mps 740 mmHg 80%
    20:00 +22°C° 0.8 mm 4 mps 740 mmHg 83%
    21:00 +21°C° 0.8 mm 5 mps 740 mmHg 86%
    22:00 +21°C° 0.6 mm 5 mps 740 mmHg 86%
    23:00 +20°C° 0.6 mm 5 mps 741 mmHg 86%

    Day after tomorrow, 24 July, Tuesday

    Time Temperature Precipitation Wind Pressure Humidity
    00:00 +20°C° 0.6 mm 5 mps 741 mmHg 87%
    01:00 +20°C° 0.4 mm 5 mps 741 mmHg 87%
    02:00 +20°C° 0.4 mm 5 mps 741 mmHg 86%
    03:00 +20°C° 0.4 mm 5 mps 741 mmHg 86%
    04:00 +20°C° 0.2 mm 5 mps 741 mmHg 85%
    05:00 +20°C° 0.2 mm 4 mps 741 mmHg 83%
    06:00 +20°C° 0.2 mm 4 mps 741 mmHg 82%
    07:00 +21°C° 0.2 mm 5 mps 741 mmHg 77%
    08:00 +22°C° 0.2 mm 5 mps 742 mmHg 72%
    09:00 +23°C° 0.2 mm 6 mps 742 mmHg 67%
    10:00 +26°C° 0.2 mm 6 mps 742 mmHg 63%
    11:00 +27°C° 0.2 mm 6 mps 742 mmHg 58%
    12:00 +28°C° 0.2 mm 6 mps 743 mmHg 53%
    13:00 +28°C° 0 mm 6 mps 743 mmHg 49%
    14:00 +29°C° 0 mm 6 mps 743 mmHg 45%
    15:00 +29°C° 0 mm 7 mps 743 mmHg 42%
    16:00 +28°C° 0 mm 6 mps 743 mmHg 47%
    17:00 +27°C° 0 mm 5 mps 743 mmHg 52%
    18:00 +26°C° 0 mm 4 mps 743 mmHg 58%
    19:00 +25°C° 0 mm 3 mps 743 mmHg 57%
    20:00 +24°C° 0 mm 3 mps 744 mmHg 55%
    21:00 +22°C° 0 mm 3 mps 744 mmHg 54%
    22:00 +22°C° 0 mm 3 mps 744 mmHg 52%
    23:00 +22°C° 0 mm 3 mps 744 mmHg 51%

    25 July, Wednesday

    Time Temperature Precipitation Wind Pressure Humidity
    00:00 +22°C° 0 mm 4 mps 744 mmHg 50%
    01:00 +21°C° 0 mm 4 mps 744 mmHg 49%
    02:00 +21°C° 0 mm 4 mps 744 mmHg 49%
    03:00 +21°C° 0 mm 4 mps 744 mmHg 48%
    04:00 +20°C° 0 mm 4 mps 744 mmHg 52%
    05:00 +20°C° 0 mm 4 mps 744 mmHg 57%
    06:00 +19°C° 0 mm 4 mps 745 mmHg 61%
    07:00 +21°C° 0.1 mm 5 mps 745 mmHg 58%
    08:00 +22°C° 0.1 mm 5 mps 745 mmHg 55%
    09:00 +25°C° 0.1 mm 5 mps 746 mmHg 52%
    10:00 +26°C° 0 mm 6 mps 746 mmHg 48%
    11:00 +28°C° 0 mm 6 mps 746 mmHg 44%
    12:00 +29°C° 0 mm 7 mps 746 mmHg 39%
    13:00 +30°C° 0 mm 7 mps 746 mmHg 38%
    14:00 +30°C° 0 mm 7 mps 746 mmHg 36%
    15:00 +32°C° 0 mm 7 mps 746 mmHg 35%
    16:00 +30°C° 0 mm 6 mps 746 mmHg 40%
    17:00 +29°C° 0 mm 6 mps 746 mmHg 44%
    18:00 +28°C° 0 mm 5 mps 746 mmHg 49%
    19:00 +26°C° 0 mm 5 mps 746 mmHg 50%
    20:00 +25°C° 0 mm 5 mps 746 mmHg 52%
    21:00 +22°C° 0 mm 5 mps 746 mmHg 53%
    22:00 +22°C° 0 mm 5 mps 746 mmHg 52%
    23:00 +23°C° 0 mm 5 mps 746 mmHg 52%

    26 July, Thursday

    Time Temperature Precipitation Wind Pressure Humidity
    00:00 +23°C° 0 mm 5 mps 746 mmHg 51%
    01:00 +23°C° 0 mm 5 mps 746 mmHg 51%
    02:00 +23°C° 0 mm 5 mps 746 mmHg 50%
    03:00 +23°C° 0 mm 5 mps 746 mmHg 50%
    04:00 +23°C° 0 mm 5 mps 746 mmHg 54%
    05:00 +22°C° 0 mm 5 mps 746 mmHg 58%
    06:00 +22°C° 0 mm 5 mps 746 mmHg 62%
    07:00 +23°C° 0 mm 6 mps 747 mmHg 59%
    08:00 +26°C° 0 mm 6 mps 747 mmHg 56%
    09:00 +27°C° 0 mm 6 mps 747 mmHg 53%
    10:00 +29°C° 0 mm 7 mps 747 mmHg 49%
    11:00 +30°C° 0 mm 7 mps 747 mmHg 45%
    12:00 +32°C° 0 mm 7 mps 747 mmHg 42%
    13:00 +33°C° 0 mm 7 mps 747 mmHg 40%
    14:00 +33°C° 0 mm 7 mps 747 mmHg 39%
    15:00 +33°C° 0 mm 7 mps 747 mmHg 38%
    16:00 +32°C° 0 mm 6 mps 747 mmHg 42%
    17:00 +30°C° 0 mm 6 mps 747 mmHg 47%
    18:00 +29°C° 0 mm 5 mps 748 mmHg 52%
    19:00 +28°C° 0 mm 5 mps 748 mmHg 53%
    20:00 +27°C° 0 mm 5 mps 748 mmHg 54%
    21:00 +25°C° 0 mm 5 mps 748 mmHg 55%
    22:00 +25°C° 0 mm 5 mps 748 mmHg 57%
    23:00 +23°C° 0 mm 5 mps 748 mmHg 59%

    27 July, Friday

    Time Temperature Precipitation Wind Pressure Humidity
    00:00 +23°C° 0 mm 5 mps 748 mmHg 60%
    01:00 +22°C° 0 mm 5 mps 748 mmHg 63%
    02:00 +21°C° 0 mm 4 mps 748 mmHg 65%
    03:00 +21°C° 0 mm 4 mps 748 mmHg 67%
    04:00 +21°C° 0 mm 4 mps 749 mmHg 69%
    05:00 +21°C° 0 mm 4 mps 749 mmHg 71%
    06:00 +21°C° 0 mm 5 mps 749 mmHg 73%
    07:00 +23°C° 0 mm 5 mps 749 mmHg 67%
    08:00 +26°C° 0 mm 5 mps 749 mmHg 61%
    09:00 +28°C° 0 mm 5 mps 749 mmHg 55%
    10:00 +29°C° 0 mm 6 mps 749 mmHg 52%
    11:00 +29°C° 0 mm 6 mps 749 mmHg 49%
    12:00 +30°C° 0 mm 6 mps 749 mmHg 46%
    13:00 +30°C° 0 mm 6 mps 749 mmHg 46%
    14:00 +30°C° 0 mm 6 mps 748 mmHg 45%
    15:00 +32°C° 0 mm 6 mps 748 mmHg 45%
    16:00 +30°C° 0 mm 5 mps 748 mmHg 49%
    17:00 +29°C° 0 mm 4 mps 748 mmHg 52%
    18:00 +29°C° 0 mm 4 mps 748 mmHg 55%
    19:00 +27°C° 0 mm 4 mps 748 mmHg 58%
    20:00 +25°C° 0 mm 4 mps 748 mmHg 61%
    21:00 +23°C° 0 mm 4 mps 748 mmHg 64%
    22:00 +22°C° 0 mm 4 mps 748 mmHg 65%
    23:00 +22°C° 0 mm 4 mps 748 mmHg 66%
    Show more